• In Hungary
  • List of Countries
  • For 7 days
  • Water Temperature
  • Satellite Maps
  • Weather Map
  • News
  • Weather Widgets
  • user-avatar
    Login

    Hourly Weather Nowogrodziec

    Today, 14 December, Thursday

    Time Temperature Precipitation Wind Pressure Humidity
    00:00 -1°C° 0.1 mm 7 mps 731 mmHg 62%
    01:00 -1°C° 0 mm 7 mps 729 mmHg 61%
    02:00 0°C° 0.3 mm 7 mps 728 mmHg 65%
    03:00 0°C° 0.3 mm 7 mps 728 mmHg 69%
    04:00 0°C° 0.3 mm 8 mps 727 mmHg 73%
    05:00 +2°C° 0.7 mm 7 mps 726 mmHg 73%
    06:00 +2°C° 0.7 mm 7 mps 726 mmHg 73%
    07:00 +2°C° 0.7 mm 7 mps 726 mmHg 74%
    08:00 +3°C° 0.4 mm 7 mps 726 mmHg 76%
    09:00 +3°C° 0.4 mm 6 mps 726 mmHg 79%
    10:00 +3°C° 0.4 mm 5 mps 726 mmHg 81%
    11:00 +3°C° 0.5 mm 7 mps 726 mmHg 75%
    12:00 +1°C° 0.5 mm 8 mps 726 mmHg 70%
    13:00 +1°C° 0.5 mm 9 mps 727 mmHg 64%
    14:00 +1°C° 0.2 mm 9 mps 727 mmHg 65%
    15:00 +1°C° 0.2 mm 8 mps 728 mmHg 66%
    16:00 +2°C° 0.2 mm 7 mps 729 mmHg 66%
    17:00 0°C° 0 mm 7 mps 729 mmHg 69%
    18:00 +1°C° 0 mm 6 mps 729 mmHg 71%
    19:00 0°C° 0 mm 5 mps 729 mmHg 74%
    20:00 0°C° 0 mm 5 mps 729 mmHg 75%
    21:00 0°C° 0 mm 5 mps 729 mmHg 76%
    22:00 0°C° 0 mm 5 mps 729 mmHg 76%
    23:00 +1°C° 0.1 mm 5 mps 728 mmHg 77%

    Tomorrow, 15 December, Friday

    Time Temperature Precipitation Wind Pressure Humidity
    00:00 +1°C° 0.1 mm 5 mps 728 mmHg 78%
    01:00 +1°C° 0.1 mm 5 mps 728 mmHg 79%
    02:00 +1°C° 0.8 mm 5 mps 728 mmHg 80%
    03:00 +1°C° 0.8 mm 5 mps 727 mmHg 81%
    04:00 +1°C° 0.8 mm 5 mps 727 mmHg 82%
    05:00 +1°C° 0.3 mm 4 mps 727 mmHg 83%
    06:00 +1°C° 0.3 mm 4 mps 727 mmHg 83%
    07:00 +1°C° 0.3 mm 4 mps 727 mmHg 84%
    08:00 +1°C° 0.2 mm 4 mps 728 mmHg 85%
    09:00 +2°C° 0.2 mm 3 mps 728 mmHg 87%
    10:00 +2°C° 0.2 mm 3 mps 729 mmHg 88%
    11:00 +2°C° 0.3 mm 3 mps 729 mmHg 88%
    12:00 +2°C° 0.3 mm 3 mps 729 mmHg 87%
    13:00 +1°C° 0.3 mm 4 mps 730 mmHg 86%
    14:00 +1°C° 0 mm 3 mps 730 mmHg 86%
    15:00 +1°C° 0 mm 3 mps 731 mmHg 86%
    16:00 0°C° 0 mm 3 mps 731 mmHg 87%
    17:00 0°C° 0 mm 3 mps 731 mmHg 87%
    18:00 -1°C° 0 mm 3 mps 732 mmHg 86%
    19:00 -1°C° 0 mm 3 mps 732 mmHg 86%
    20:00 -1°C° 0 mm 3 mps 732 mmHg 86%
    21:00 -1°C° 0 mm 3 mps 732 mmHg 86%
    22:00 -1°C° 0 mm 3 mps 733 mmHg 86%
    23:00 -1°C° 0 mm 3 mps 733 mmHg 86%

    Day after tomorrow, 16 December, Saturday

    Time Temperature Precipitation Wind Pressure Humidity
    00:00 0°C° 0 mm 3 mps 733 mmHg 87%
    01:00 0°C° 0 mm 3 mps 733 mmHg 87%
    02:00 0°C° 0 mm 3 mps 733 mmHg 88%
    03:00 0°C° 0 mm 3 mps 733 mmHg 88%
    04:00 0°C° 0 mm 3 mps 733 mmHg 89%
    05:00 0°C° 0 mm 3 mps 733 mmHg 89%
    06:00 0°C° 0 mm 3 mps 733 mmHg 90%
    07:00 -1°C° 0 mm 3 mps 734 mmHg 91%
    08:00 0°C° 0 mm 3 mps 734 mmHg 89%
    09:00 -1°C° 0 mm 4 mps 735 mmHg 88%
    10:00 -1°C° 0 mm 4 mps 735 mmHg 86%
    11:00 0°C° 0 mm 4 mps 735 mmHg 86%
    12:00 0°C° 0 mm 4 mps 736 mmHg 85%
    13:00 0°C° 0 mm 4 mps 736 mmHg 85%
    14:00 0°C° 0 mm 4 mps 736 mmHg 85%
    15:00 0°C° 0 mm 4 mps 737 mmHg 85%
    16:00 -1°C° 0 mm 4 mps 737 mmHg 85%
    17:00 -1°C° 0 mm 4 mps 738 mmHg 85%
    18:00 -1°C° 0 mm 4 mps 738 mmHg 85%
    19:00 -1°C° 0 mm 4 mps 738 mmHg 85%
    20:00 -1°C° 0 mm 4 mps 739 mmHg 86%
    21:00 -2°C° 0 mm 4 mps 739 mmHg 87%
    22:00 -2°C° 0 mm 4 mps 740 mmHg 88%
    23:00 -2°C° 0 mm 4 mps 740 mmHg 88%

    17 December, Sunday

    Time Temperature Precipitation Wind Pressure Humidity
    00:00 -2°C° 0 mm 4 mps 740 mmHg 88%
    01:00 -2°C° 0 mm 4 mps 741 mmHg 88%
    02:00 -2°C° 0.1 mm 4 mps 741 mmHg 88%
    03:00 -2°C° 0.1 mm 4 mps 741 mmHg 88%
    04:00 -2°C° 0.1 mm 4 mps 741 mmHg 88%
    05:00 -2°C° 0.1 mm 4 mps 742 mmHg 88%
    06:00 -2°C° 0.1 mm 4 mps 742 mmHg 88%
    07:00 -2°C° 0.1 mm 4 mps 743 mmHg 88%
    08:00 -2°C° 0 mm 4 mps 743 mmHg 87%
    09:00 -2°C° 0 mm 5 mps 744 mmHg 86%
    10:00 -1°C° 0 mm 5 mps 745 mmHg 85%
    11:00 -1°C° 0 mm 5 mps 745 mmHg 83%
    12:00 -1°C° 0 mm 5 mps 745 mmHg 81%
    13:00 -1°C° 0 mm 5 mps 745 mmHg 80%
    14:00 -1°C° 0 mm 5 mps 746 mmHg 81%
    15:00 -2°C° 0 mm 4 mps 746 mmHg 82%
    16:00 -2°C° 0 mm 4 mps 746 mmHg 82%
    17:00 -2°C° 0 mm 4 mps 747 mmHg 85%
    18:00 -2°C° 0 mm 3 mps 747 mmHg 88%
    19:00 -2°C° 0 mm 3 mps 748 mmHg 91%
    20:00 -2°C° 0 mm 3 mps 748 mmHg 91%
    21:00 -2°C° 0 mm 4 mps 748 mmHg 91%
    22:00 -2°C° 0 mm 4 mps 748 mmHg 91%
    23:00 -2°C° 0.1 mm 4 mps 748 mmHg 91%

    18 December, Monday

    Time Temperature Precipitation Wind Pressure Humidity
    00:00 -2°C° 0.1 mm 4 mps 748 mmHg 90%
    01:00 -2°C° 0.1 mm 4 mps 748 mmHg 90%
    02:00 -2°C° 0.1 mm 4 mps 747 mmHg 89%
    03:00 -2°C° 0.1 mm 4 mps 746 mmHg 88%
    04:00 -2°C° 0.1 mm 4 mps 745 mmHg 88%
    05:00 -2°C° 0.5 mm 4 mps 744 mmHg 88%
    06:00 -2°C° 0.5 mm 4 mps 743 mmHg 88%
    07:00 -2°C° 0.5 mm 4 mps 742 mmHg 89%
    08:00 -1°C° 0.9 mm 4 mps 741 mmHg 89%
    09:00 -1°C° 0.9 mm 5 mps 740 mmHg 89%
    10:00 0°C° 0.9 mm 5 mps 740 mmHg 89%
    11:00 0°C° 0.8 mm 4 mps 739 mmHg 91%
    12:00 0°C° 0.8 mm 4 mps 739 mmHg 93%
    13:00 +1°C° 0.8 mm 4 mps 739 mmHg 96%
    14:00 +1°C° 0.3 mm 4 mps 739 mmHg 96%
    15:00 +1°C° 0.3 mm 4 mps 740 mmHg 96%
    16:00 0°C° 0.3 mm 4 mps 740 mmHg 96%
    17:00 0°C° 0.2 mm 4 mps 741 mmHg 96%
    18:00 0°C° 0.2 mm 3 mps 742 mmHg 96%
    19:00 0°C° 0.2 mm 3 mps 743 mmHg 96%
    20:00 -1°C° 0.1 mm 3 mps 744 mmHg 96%
    21:00 -1°C° 0.1 mm 2 mps 745 mmHg 96%
    22:00 -2°C° 0.1 mm 2 mps 746 mmHg 96%
    23:00 -2°C° 0 mm 2 mps 747 mmHg 96%

    19 December, Tuesday

    Time Temperature Precipitation Wind Pressure Humidity
    00:00 -2°C° 0 mm 2 mps 747 mmHg 96%
    01:00 -2°C° 0 mm 2 mps 748 mmHg 95%
    02:00 -2°C° 0 mm 2 mps 749 mmHg 95%
    03:00 -2°C° 0 mm 2 mps 750 mmHg 95%
    04:00 -3°C° 0 mm 2 mps 751 mmHg 95%
    05:00 -3°C° 0 mm 2 mps 751 mmHg 95%
    06:00 -3°C° 0 mm 2 mps 752 mmHg 95%
    07:00 -4°C° 0 mm 2 mps 753 mmHg 95%
    08:00 -3°C° 0 mm 2 mps 754 mmHg 94%
    09:00 -1°C° 0 mm 1 mps 755 mmHg 93%
    10:00 -1°C° 0 mm 1 mps 755 mmHg 91%
    11:00 -1°C° 0 mm 1 mps 756 mmHg 89%
    12:00 0°C° 0 mm 1 mps 756 mmHg 86%
    13:00 0°C° 0 mm 1 mps 756 mmHg 83%
    14:00 0°C° 0 mm 1 mps 756 mmHg 86%
    15:00 -1°C° 0 mm 1 mps 756 mmHg 89%
    16:00 -2°C° 0 mm 1 mps 756 mmHg 91%
    17:00 -2°C° 0 mm 1 mps 757 mmHg 92%
    18:00 -2°C° 0 mm 1 mps 757 mmHg 92%
    19:00 -3°C° 0 mm 1 mps 757 mmHg 92%
    20:00 -2°C° 0 mm 1 mps 757 mmHg 92%
    21:00 -4°C° 0 mm 2 mps 757 mmHg 91%
    22:00 -4°C° 0 mm 2 mps 757 mmHg 91%
    23:00 -4°C° 0 mm 2 mps 757 mmHg 91%
    Show more